STARLINK-4503, 53528

Orbit data source: Space-Track

STARLINK-4503, 53528 is a payload satellite owned by SpaceX/Seattle (US) in LEO that was launched on Fri, 19 Aug 2022 UTC via an FALCON 9 launch vehicle from the Air Force Eastern Test Range (AFETR). Payload-class satellites include a variety of spacecraft equipped with specific instruments for various scientific and technological missions. These include communications satellites like Starlink; space stations such as the ISS; scientific satellites like the Hubble; Earth observation satellites from companies like Planet Labs, Umbra, and HawkEye 360; GPS; miniature CubeSats for education and research; and military/defense satellites.

Loading next visibility...
Identifier
53528, 2022-101B
Orbit
LEO
Country
Flag of USUS
Related business
Manufacturer
SpaceX/Seattle
Mission
Operational Commercial Communications
Bus & Motor
STARLINK, Unknown motor
Mass
300 kg wet, ~290 kg dry
Launch date (UTC)
2022-08-19 (4 years ago)
Launch vehicle
FALCON 9
Launch site
Air Force Eastern Test Range (AFETR)
Object type
Payload
Rocket body
Debris
Shape & HBR
Box + 1 Pan, 10.1 m
Radar Cross Section
13.562 m², Large (>1 m²)

Expand to show TLE details & history
Last TLE update: 2 days ago

TLE from 2 days ago
0 STARLINK-4503
1 53528U 22101B   26171.45165609  .00000844  00000-0  71164-4 0  9991
2 53528  53.1599 332.6879 0001254  80.6540 279.4593 15.08827487211676
Epoch: 2026-06-20T10:50Z
TLE epoch observation values (Epoch: 2026-06-20T10:50:23.086Z)
Latitude
-0.00002°
Longitude
-98.57439°
Altitude
540.531 km
Speed
7.593 km/s
True Right ascension
22h 10m 45s
True Declination
0° 00' 00"
Sunlit
Object was in full shadow at epoch
Visualization orbit readout
Latitude
Unknown
Longitude
Unknown
Altitude
Unknown
Speed
Unknown
Apparent Right ascension
Unknown
Apparent Declination
Unknown
Sunlit
N/A
Visualization observer readout
Local Sidereal Time
21:27:00
Azimuth
Unknown
Elevation
Unknown
Doppler factor
Unknown
Orbital elements
Apogee altitude
540.903 km
Perigee altitude
539.168 km
Semi-major axis
6,918.173 km
Eccentricity
0.00013
Inclination
53.1599°
RAAN
332.6879°
Arg. of periapsis
80.654°
True anomaly
279.44513°
Mean anomaly
279.4593°
Eccentric anomaly
279.45221°
Mean motion
3.77186 °/min
Orbital period
95.44 mins
BSTAR
0.000071164
Loading maneuver chart data...
Computing Atmospheric mass density...
Loading historical data...
Loading historical data...
Loading historical data...
Loading historical data...
Loading historical data...
Loading historical data...
Loading historical data...

Documentation

Showing up to 5 results
|